ONEWEB-0169

Last updated on April 25, 2021, 12:02 a.m. UTC

1 48077U 21025AM  21114.58336806 -.01065604  00000-0 -49986-1 0  9995
2 48077  87.4270 339.3668 0011492 142.9111 309.4752 15.22620699  1834
UTC
Height (km)
Latitude
Longitude
Inclination
Orbital Period
UTC large
Height (km)
Speed (km/s)
/
Latitude / Longitude
Inclination (degrees)
Orbital Period (minutes)
Azimuth
Elevation
Range (km)
Doppler Factor
iOS Compass Heading
iOS Angle

Next 30 passes for location: Hong Kong

Rise time Rise Azimuth (degrees) Set time Set Azimuth (degrees) Duration Max altitude (degrees)

No matching passes for this satellites